[[{"header":{"parameterUnit":"m.s-1","parameterCategory":1,"la1":30.2991,"la2":30.254,"lo1":-89.0895,"lo2":-89.0444,"dy":0.0017,"dx":0.0017,"nx":28,"ny":28,"refTime":"2024-04-14T21:00:00:Z","depth":0,"parameterNumber":2,"parameterNumberName":"U-component_of_WINDS"},"data":[0,0,0,0,0,0,0,0,0,0,0,0,0,0,0,0,0,0,0,0,0,0,0,0,0,0,0,0,0,0,0,0,0,0,0,0,0,0,0,0,0,0,0,0,0,0,0,0,0,0,0,0,0,0,0,0,0,0,-2.449,-2.449,0,-2.4498,-2.4498,-2.4498,-2.4473,-2.4472,-2.4471,-2.4471,-2.448,-2.4481,-2.4482,0,0,0,0,0,0,0,0,0,0,0,0,0,-2.4453,-2.4454,-2.449,-2.449,-2.449,-2.4498,-2.4498,-2.4498,-2.4473,-2.4472,-2.4471,-2.447,-2.4479,-2.448,-2.4482,0,0,0,0,0,0,0,0,0,0,0,0,0,-2.4466,-2.4454,-2.449,-2.4479,-2.4478,-2.4498,-2.4498,-2.4498,-2.4473,-2.4472,-2.4471,-2.447,-2.4479,-2.448,-2.4482,-2.4514,0,0,-2.4486,-2.4487,0,0,0,0,0,0,0,0,-2.4465,-2.4467,-2.448,-2.4479,-2.4478,-2.4483,-2.4488,-2.4504,-2.4474,-2.4475,-2.4471,-2.4469,-2.4482,-2.4483,-2.4487,-2.4514,-2.4515,-2.4486,-2.4487,-2.4488,-2.4488,0,0,0,0,0,0,0,-2.4464,-2.4467,-2.4493,-2.448,-2.4479,-2.4473,-2.4474,-2.4491,-2.4485,-2.4475,-2.4473,-2.4474,-2.4481,-2.4486,-2.4487,-2.4515,-2.4486,-2.4488,-2.4488,-2.4489,-2.4568,-2.4569,0,0,0,0,0,0,-2.4465,-2.4466,-2.4493,-2.4494,-2.4469,-2.4475,-2.4475,-2.4483,-2.4485,-2.4484,-2.4475,-2.4473,-2.4484,-2.4485,-2.4487,-2.4524,-2.4488,-2.4489,-2.449,-2.4566,-2.4568,-2.4569,0,0,0,0,0,0,-2.4464,-2.4467,-2.4493,-2.4479,-2.4482,-2.4477,-2.4485,-2.4484,-2.4488,-2.4485,-2.4484,-2.4481,-2.4483,-2.4485,-2.4507,-2.4524,-2.449,-2.4491,-2.4565,-2.4567,-2.4568,-2.4598,0,0,0,0,0,0,-2.4463,-2.4467,-2.448,-2.448,-2.4483,-2.4513,-2.4486,-2.4485,-2.4491,-2.4488,-2.449,-2.4489,-2.4482,-2.4505,-2.4509,-2.4525,-2.4492,-2.4563,-2.4566,-2.4568,-2.4596,-2.4601,-2.4605,0,0,0,0,0,-2.4462,-2.4488,-2.448,-2.4484,-2.4498,-2.4514,-2.4515,-2.4506,-2.4492,-2.4504,-2.4502,-2.4489,-2.4522,-2.4508,-2.4511,-2.4529,-2.4562,-2.4565,-2.4568,-2.4593,-2.46,-2.4605,0,0,0,0,0,0,-2.449,-2.4488,-2.4479,-2.4506,-2.451,-2.4509,-2.4524,-2.4514,-2.4522,-2.4519,-2.4508,-2.4509,-2.4532,-2.4533,-2.4517,-2.4559,-2.454,-2.4543,-2.4558,-2.4564,-2.4568,-2.4567,-2.4493,0,0,0,0,0,-2.45,-2.4512,-2.451,-2.4534,-2.4536,-2.453,-2.4536,-2.4529,-2.4533,-2.4535,-2.4534,-2.4538,-2.4549,-2.4557,-2.4567,-2.4596,-2.4595,-2.461,-2.4614,-2.4618,-2.4621,-2.4635,-2.4641,-2.4578,-2.4578,-2.4578,0,0,-2.4519,-2.4519,-2.4528,-2.4539,-2.4542,-2.4555,-2.4531,-2.4547,-2.4556,-2.4537,-2.4557,-2.4557,-2.4561,-2.4586,-2.4597,-2.4587,-2.4639,-2.4622,-2.4625,-2.4626,-2.4639,-2.4645,-2.465,-2.458,-2.458,-2.4579,0,0,-2.4561,-2.4563,-2.4583,-2.4585,-2.4589,-2.4584,-2.4589,-2.4589,-2.4588,-2.4608,-2.4594,-2.4605,-2.4625,-2.4628,-2.4632,-2.4674,-2.4662,-2.4678,-2.4703,-2.4717,-2.4722,-2.4726,-2.474,-2.4745,-2.4681,-2.4681,-2.4681,0,-2.4585,-2.4604,-2.4594,-2.461,-2.4615,-2.4598,-2.4617,-2.462,-2.4627,-2.4631,-2.462,-2.4643,-2.4645,-2.467,-2.468,-2.4684,-2.4689,-2.4677,-2.4722,-2.4726,-2.473,-2.4743,-2.4748,-2.4683,-2.4683,-2.4683,-2.4683,0,-2.4633,-2.4646,-2.4662,-2.4668,-2.4675,-2.4692,-2.4685,-2.4693,-2.4685,-2.4682,-2.4702,-2.4703,-2.4713,-2.4718,-2.4711,-2.4742,-2.4736,-2.4724,-2.4703,-2.4738,-2.475,-2.4755,-2.4686,-2.4685,-2.4684,-2.4684,0,0,-2.4693,-2.4693,-2.4699,-2.4701,-2.4703,-2.4713,-2.473,-2.4738,-2.4745,-2.475,-2.4764,-2.478,-2.4768,-2.4773,-2.4766,-2.4779,-2.4811,-2.4764,-2.4764,-2.4772,-2.4843,-2.4852,-2.4858,-2.4803,-2.4804,-2.4805,-2.4843,0,-2.4734,-2.4761,-2.4753,-2.4781,-2.4792,-2.4776,-2.479,-2.4793,-2.479,-2.48,-2.4797,-2.4808,-2.4793,-2.4795,-2.4807,-2.4804,-2.4825,-2.4802,-2.4815,-2.4815,-2.4813,-2.4865,-2.4874,-2.4909,-2.4848,-2.4848,-2.4849,0,-2.4785,-2.4791,-2.482,-2.4819,-2.4823,-2.4837,-2.4843,-2.4853,-2.4855,-2.4852,-2.4857,-2.4848,-2.4863,-2.4844,-2.4865,-2.485,-2.4855,-2.4854,-2.4855,-2.4855,-2.4833,-2.4865,-2.4921,-2.4926,-2.4857,-2.4856,-2.4855,0,-2.4824,-2.484,-2.4859,-2.4861,-2.4861,-2.487,-2.4871,-2.4872,-2.4878,-2.4884,-2.4887,-2.4895,-2.49,-2.4906,-2.4898,-2.4885,-2.4921,-2.4901,-2.4918,-2.4918,-2.4926,-2.4925,-2.4982,-2.4931,-2.4931,-2.4931,-2.493,0,-2.487,-2.4888,-2.4876,-2.4888,-2.4908,-2.4897,-2.4917,-2.4916,-2.4917,-2.4928,-2.4915,-2.4925,-2.4915,-2.4925,-2.4919,-2.4937,-2.4939,-2.4937,-2.4935,-2.4938,-2.4938,-2.494,-2.4937,-2.4932,-2.4932,-2.4931,-2.4931,0,-2.4917,-2.491,-2.493,-2.4927,-2.4927,-2.4942,-2.494,-2.495,-2.4946,-2.496,-2.4963,-2.4957,-2.4967,-2.4961,-2.4972,-2.4968,-2.4991,-2.4986,-2.499,-2.4988,-2.5005,-2.5003,-2.5064,-2.5071,-2.5017,-2.5018,-2.5018,0,-2.4946,-2.496,-2.4958,-2.4964,-2.4965,-2.4975,-2.498,-2.4971,-2.4977,-2.498,-2.499,-2.4999,-2.5006,-2.5023,-2.502,-2.5028,-2.5023,-2.5044,-2.5024,-2.5025,-2.5021,-2.502,-2.5021,-2.5047,-2.5048,-2.5048,-2.5049,0,-2.4998,-2.4994,-2.5002,-2.5008,-2.5014,-2.5019,-2.5022,-2.5028,-2.5018,-2.5026,-2.5036,-2.5041,-2.5051,-2.506,-2.5067,-2.5067,-2.5056,-2.5055,-2.5059,-2.5062,-2.5062,-2.5061,-2.4999,-2.5054,-2.5053,-2.5053,-2.5053,-2.5052,-2.5037,-2.5047,-2.5047,-2.5056,-2.5058,-2.5061,-2.507,-2.5067,-2.5075,-2.5082,-2.5076,-2.5088,-2.5089,-2.5097,-2.5098,-2.5107,-2.5099,-2.5105,-2.5107,-2.5108,-2.511,-2.5062,-2.5109,-2.5109,-2.5109,-2.5108,-2.5108,0,-2.5087,-2.5086,-2.5094,-2.5099,-2.5105,-2.5094,-2.5097,-2.5104,-2.5114,-2.5116,-2.5123,-2.5134,-2.5142,-2.5139,-2.5146,-2.5154,-2.5149,-2.5156,-2.5155,-2.5155,-2.5118,-2.5113,-2.516,-2.516,-2.516,-2.516,-2.516,-2.516,-2.5114,-2.5131,-2.5126,-2.5143,-2.5142,-2.5153,-2.5156,-2.5158,-2.516,-2.5172,-2.5179,-2.5177,-2.5177,-2.5184,-2.5191,-2.5189,-2.5192,-2.5201,-2.5198,-2.5163,-2.5158,-2.5153,-2.5148,-2.5202,-2.5202,-2.5234,-2.5235,-2.5235]},{"header":{"parameterUnit":"m.s-1","parameterCategory":1,"la1":30.2991,"la2":30.254,"lo1":-89.0895,"lo2":-89.0444,"dy":0.0017,"dx":0.0017,"nx":28,"ny":28,"refTime":"2024-04-14T21:00:00:Z","depth":0,"parameterNumber":3,"parameterNumberName":"V-component_of_WINDS"},"data":[0,0,0,0,0,0,0,0,0,0,0,0,0,0,0,0,0,0,0,0,0,0,0,0,0,0,0,0,0,0,0,0,0,0,0,0,0,0,0,0,0,0,0,0,0,0,0,0,0,0,0,0,0,0,0,0,0,0,4.3616,4.3616,0,4.368,4.3681,4.3682,4.3635,4.3633,4.3631,4.3629,4.3693,4.3697,4.37,0,0,0,0,0,0,0,0,0,0,0,0,0,4.345,4.3454,4.3616,4.3616,4.3617,4.368,4.3681,4.3682,4.3636,4.3633,4.3631,4.3628,4.3692,4.3696,4.3701,0,0,0,0,0,0,0,0,0,0,0,0,0,4.3519,4.3455,4.3616,4.3602,4.3601,4.368,4.3681,4.3682,4.3636,4.3633,4.363,4.3627,4.3691,4.3696,4.3701,4.3796,0,0,4.3718,4.372,0,0,0,0,0,0,0,0,4.3515,4.3525,4.3603,4.3603,4.3602,4.3647,4.3646,4.372,4.3637,4.3623,4.3629,4.3626,4.368,4.3686,4.3705,4.3799,4.3802,4.3718,4.3722,4.3724,4.3725,0,0,0,0,0,0,0,4.3511,4.3522,4.3641,4.3604,4.3604,4.3592,4.3598,4.366,4.3668,4.3624,4.3621,4.3629,4.3679,4.37,4.3706,4.3803,4.3718,4.3723,4.3726,4.3728,4.3977,4.398,0,0,0,0,0,0,4.3507,4.3519,4.3639,4.3643,4.3551,4.3597,4.3604,4.3635,4.3667,4.3669,4.3632,4.3627,4.3692,4.37,4.3708,4.3821,4.3724,4.3729,4.3732,4.3974,4.3978,4.3981,0,0,0,0,0,0,4.3504,4.3519,4.3636,4.358,4.3594,4.3603,4.3639,4.3638,4.3659,4.3673,4.3674,4.3651,4.369,4.3701,4.3775,4.3822,4.3731,4.3736,4.397,4.3975,4.398,4.4048,0,0,0,0,0,0,4.3499,4.3518,4.3554,4.3581,4.3597,4.3703,4.3642,4.3642,4.3669,4.3663,4.3692,4.3693,4.3688,4.3767,4.378,4.3828,4.3741,4.3965,4.3972,4.3978,4.4041,4.4054,4.4066,0,0,0,0,0,4.3494,4.3571,4.3557,4.3571,4.3644,4.3706,4.3715,4.3708,4.3673,4.3709,4.3718,4.3693,4.3815,4.3775,4.3789,4.384,4.3962,4.397,4.3978,4.4036,4.4052,4.4065,0,0,0,0,0,0,4.3549,4.3574,4.3559,4.3647,4.3675,4.3698,4.3744,4.3725,4.3763,4.3756,4.3745,4.3752,4.383,4.3842,4.3797,4.3933,4.3883,4.3894,4.3922,4.3938,4.395,4.3945,4.3745,0,0,0,0,0,4.3571,4.3621,4.3639,4.3715,4.373,4.3735,4.3761,4.3754,4.3782,4.3793,4.3807,4.3835,4.3879,4.3909,4.3951,4.4042,4.4048,4.4084,4.4097,4.4107,4.4116,4.4165,4.4181,4.4006,4.4006,4.4006,0,0,4.3618,4.3638,4.367,4.3727,4.3747,4.3798,4.3745,4.38,4.3837,4.3801,4.3872,4.3884,4.3914,4.3997,4.4034,4.4009,4.4165,4.4116,4.4124,4.4128,4.4174,4.4191,4.4205,4.4011,4.401,4.401,0,0,4.3729,4.375,4.3815,4.3837,4.3868,4.3871,4.3887,4.3913,4.3919,4.399,4.3964,4.4007,4.4085,4.4107,4.4128,4.4247,4.4225,4.4261,4.4325,4.4373,4.4387,4.4399,4.4441,4.4456,4.427,4.4271,4.4271,0,4.3784,4.3859,4.385,4.3908,4.3934,4.3904,4.3969,4.399,4.4034,4.4052,4.4024,4.412,4.4138,4.4226,4.4255,4.4273,4.429,4.4258,4.4385,4.4397,4.4409,4.4449,4.4465,4.4275,4.4274,4.4274,4.4273,0,4.3924,4.3976,4.4025,4.4069,4.41,4.4161,4.4161,4.4193,4.4182,4.4188,4.426,4.428,4.4326,4.4346,4.4336,4.4432,4.4416,4.4387,4.4336,4.443,4.4467,4.4482,4.4281,4.4279,4.4278,4.4277,0,0,4.4072,4.411,4.4128,4.4147,4.418,4.422,4.4279,4.4324,4.4352,4.4383,4.4432,4.4498,4.4471,4.4495,4.4487,4.4529,4.4622,4.4495,4.4495,4.4518,4.4728,4.475,4.4768,4.4607,4.461,4.4612,4.4726,0,4.4185,4.4289,4.4283,4.4381,4.4429,4.4401,4.4452,4.4477,4.4484,4.4525,4.4531,4.4578,4.4539,4.4554,4.4594,4.4602,4.4664,4.4594,4.4652,4.4654,4.4645,4.4787,4.4811,4.4917,4.474,4.4743,4.4744,0,4.4331,4.4367,4.447,4.4495,4.4515,4.4562,4.4602,4.4641,4.4669,4.467,4.4698,4.4683,4.4742,4.469,4.477,4.4723,4.4746,4.4754,4.4758,4.4763,4.4705,4.4796,4.4951,4.4967,4.4767,4.4766,4.4764,0,4.4428,4.4503,4.4574,4.4591,4.4622,4.4656,4.467,4.4695,4.4722,4.4756,4.4774,4.4815,4.4837,4.4869,4.4865,4.4828,4.4947,4.4895,4.495,4.495,4.4976,4.4975,4.5137,4.4991,4.4991,4.4991,4.499,0,4.4555,4.4619,4.4618,4.4662,4.4733,4.4724,4.4794,4.4804,4.4826,4.4871,4.4849,4.4891,4.4883,4.4925,4.4922,4.4989,4.4999,4.5002,4.5,4.5004,4.5004,4.5019,4.5012,4.4995,4.4994,4.4993,4.4992,0,4.4677,4.4679,4.4754,4.4777,4.4785,4.4835,4.4855,4.4896,4.49,4.4956,4.4969,4.4975,4.5023,4.5023,4.5077,4.5075,4.5157,4.5147,4.5148,4.5146,4.5201,4.5196,4.5378,4.5402,4.5241,4.5243,4.5244,0,4.4757,4.4806,4.4834,4.4863,4.4879,4.4926,4.4953,4.4946,4.4976,4.5011,4.5047,4.5093,4.513,4.5208,4.5217,4.5258,4.5249,4.531,4.5255,4.5257,4.525,4.5247,4.5251,4.5321,4.5323,4.5324,4.5325,0,4.4901,4.4899,4.494,4.4982,4.5015,4.5048,4.5077,4.5101,4.5098,4.5132,4.5181,4.5209,4.5265,4.5311,4.5351,4.5364,4.5344,4.5342,4.5357,4.5361,4.536,4.5361,4.5178,4.5338,4.5337,4.5336,4.5335,4.5335,4.5004,4.5046,4.5072,4.5119,4.514,4.5168,4.5207,4.5216,4.5258,4.5303,4.5296,4.5351,4.5376,4.5427,4.5445,4.5487,4.5465,4.5487,4.5492,4.5497,4.5504,4.5353,4.5494,4.5493,4.5493,4.5493,4.5493,0,4.5146,4.5162,4.5204,4.5246,4.5283,4.5261,4.5292,4.5324,4.5372,4.5398,4.5434,4.5491,4.5535,4.5547,4.5589,4.5621,4.5612,4.5632,4.563,4.5633,4.552,4.5504,4.5638,4.5638,4.5638,4.5638,4.5638,4.5638,4.5225,4.5294,4.5295,4.5375,4.5389,4.5443,4.5463,4.5488,4.5509,4.5572,4.5609,4.5617,4.5637,4.5681,4.572,4.5722,4.5739,4.5762,4.5761,4.5655,4.5641,4.5627,4.5611,4.5766,4.5766,4.5869,4.587,4.5871]}]]